Location: Augustenthal
(51.7167°N, 10.2833°E)
Time: 22:43:12
(UTC+00:00)

Cosmos 1766 - Pass Details

Date: 18 May 2021
Orbit: 519 x 544 km, 82.5° (Epoch: 24 June)

Event Time Altitude Azimuth Distance (km) Brightness Sun altitude
Rises 23:10:42 0° 346° (NNW) 2,702 8.4 -18.5°
Reaches altitude 10° 23:12:54 10° 343° (NNW) 1,801 7.1 -18.5°
Maximum altitude 23:16:47 60° 264° (W) 615 3.4 -18.5°
Enters shadow 23:17:44 44° 210° (SSW) 738 3.5 -18.5°
